Location: Little Cypress
(30.1590°N, 93.7750°W)
Time: 23:55:39
(UTC-06:00)

Daily predictions for brighter satellites

Satellite Brightness Start Highest point End
(mag) Time Altitude Azimuth Time Altitude Azimuth Time Altitude Azimuth
CZ-3A R/B 3.7 18:23:53 10° SW 18:28:04 44° SSE 18:48:31 10° E
Cosmos 1633 2.4 18:26:56 10° S 18:30:28 72° E 18:34:00 10° N
Cosmos 44 Rocket 3.9 18:26:15 10° N 18:31:01 39° ENE 18:35:48 10° SE
IRS-1A Rocket 4.5 18:27:29 10° SSE 18:33:17 87° WSW 18:39:12 10° NNW
Cosmos 2233 Rocket 4.5 18:27:20 10° N 18:33:33 69° W 18:39:40 10° S
FENGYUN 3A 3.7 18:33:18 10° SSE 18:38:41 81° ENE 18:44:06 10° N
Sich 1 Rocket 3.7 18:35:40 10° S 18:40:03 55° E 18:44:26 10° NNE
Cosmos 1048 Rocket 4.1 18:35:03 10° SSW 18:40:24 86° WNW 18:45:42 10° NNE
COSMO-SKYMED 1 3.8 18:36:47 10° N 18:40:55 46° WNW 18:45:04 10° SSW
ALOS 2.4 18:37:22 10° S 18:42:02 84° WSW 18:46:44 10° NNW
Okean 3 3.4 18:38:16 10° N 18:42:26 69° E 18:46:35 10° SSE
Gbstr 26 Del rocket 3.4 18:38:51 10° WSW 18:42:33 52° NW 18:46:14 10° NE
Cosmos 1452 Rocket 3.5 18:38:35 10° NNW 18:43:50 76° ENE 18:49:04 10° SSE
Cosmos 44 3.4 18:43:35 10° NNW 18:48:45 81° ENE 18:54:05 10° SSE
Okean 2 Rocket 3.8 18:47:31 10° SSE 18:51:21 30° E 18:55:12 10° NNE
SPOT 3 Rocket 3.5 18:49:30 10° SSE 18:54:40 74° ENE 18:59:52 10° N
ERS-2 2.9 18:52:38 10° SE 18:55:55 31° ENE 18:59:12 10° N
Cosmos 1464 Rocket 3.9 18:49:57 10° N 18:56:04 71° E 19:02:11 10° SSE
Cosmos 921 Rocket 3.4 18:54:07 10° N 18:58:25 43° ENE 19:02:36 10° SE
Cosmos 2237 Rocket 4.1 18:54:22 10° NW 18:59:21 33° WSW 19:04:19 10° SSW
ARGOS Delta rocket 4.4 18:55:36 10° NNE 18:59:45 31° E 19:03:43 10° SSE
Cosmos 1674 Rocket 4.4 18:55:55 10° NNW 19:00:08 53° W 19:04:18 10° S
Cosmos 1420 Rocket 4.0 18:56:07 10° NNW 19:01:26 89° E 19:06:44 10° SSE
IUS-18 SRM-1 3.0 18:59:39 10° WSW 19:01:40 31° S 19:04:49 12° ESE
H-2A R/B 2.7 19:00:41 10° SSE 19:04:34 74° ENE 19:08:28 10° N
SeaSat 1 4.1 19:04:39 15° ENE 19:05:11 15° NE 19:07:52 10° NNE
SL-16 R/B 2.3 19:00:13 10° NNW 19:05:53 84° WSW 19:11:32 10° SSE
COSMOS 2455 2.9 19:02:31 10° S 19:08:24 60° ESE 19:14:19 10° NNE
SJ-6B 3.2 19:12:49 10° SE 19:16:17 37° ENE 19:19:50 10° N
Cosmos 2346 Rocket 4.5 19:11:05 10° S 19:17:08 57° E 19:23:09 10° NNE
GPS 2-05 Rocket1 3.2 19:14:40 10° W 19:17:47 46° NNW 19:18:59 29° NE
USA 215 3.2 19:12:50 10° NE 19:19:24 84° SE 19:25:55 10° SW
Sakura Rocket 3.8 19:15:06 10° W 19:20:11 79° S 19:24:24 24° E
Cosmos 1603 4.0 19:19:32 10° N 19:24:50 41° ENE 19:27:50 23° ESE
Envisat 3.4 19:20:35 10° SE 19:25:17 40° ENE 19:30:01 10° N
HJ-1C 3.3 19:24:46 10° SSE 19:28:10 69° ENE 19:31:34 10° N
CZ-2D R/B 3.5 19:27:12 28° SE 19:28:50 46° ENE 19:32:35 10° N
Cosmos 2263 Rocket 2.1 19:25:33 10° S 19:31:00 62° ESE 19:36:31 10° NNE
Cosmos 2034 Rocket 4.2 19:27:17 10° N 19:33:40 77° W 19:39:58 10° S
Cosmos 494 Rocket 4.1 19:28:49 10° SSW 19:34:01 75° WNW 19:39:14 10° NNE
Meteor 1-13 Rocket 4.1 19:30:56 10° N 19:36:21 59° E 19:41:47 10° SSE
Cosmos 1975 Rocket 3.1 19:32:48 10° N 19:37:15 79° W 19:41:43 10° S
Okean 1 4.4 19:34:15 10° NNW 19:38:02 44° W 19:41:49 10° SSW
Meteor 1-4 Rocket 3.0 19:34:49 10° SSW 19:38:15 59° W 19:41:46 10° N
Cosmos 1634 Rocket 4.1 19:38:10 10° N 19:44:05 47° E 19:47:12 26° SE
Cosmos 1110 Rocket 3.9 19:42:16 10° N 19:47:32 64° ENE 19:49:27 38° SE
Thor Agena Rocket 3.9 19:44:34 10° N 19:49:34 63° WNW 19:54:31 10° SSW
Resurs 01 Rocket 3.4 19:52:53 19° NNE 19:52:53 19° NNE 19:54:15 10° N
CZ-3C R/B 3.0 19:50:19 10° SW 19:54:17 39° SSE 19:57:13 31° ESE
Tiangong 2 3.6 19:53:07 10° W 19:55:11 16° SW 19:55:48 16° SSW
OAO 2 Rocket 3.6 19:53:52 10° WNW 19:58:42 51° N 19:58:57 50° NNE
Meteor 1-5 Rocket 4.3 19:56:08 10° S 20:01:58 86° W 20:07:58 10° N
Cosmos 1536 3.3 19:59:40 10° SSW 20:03:39 60° W 20:04:57 38° NNW
Meteor 2-4 Rocket 3.6 20:00:39 10° N 20:06:23 87° W 20:10:03 22° S
Lacrosse 5 rocket 2.5 20:04:15 10° SW 20:06:33 34° WSW 20:06:33 34° WSW
Cosmos 1331 Rocket 4.1 20:12:08 10° NNW 20:17:26 73° WSW 20:17:51 69° SW
CZ-4C R/B 3.5 20:11:08 10° NNW 20:17:10 41° NE 20:17:10 41° NE
Cosmos 1943 3.8 20:23:36 10° NNW 20:27:32 47° NNW 20:27:32 47° NNW
SeaSat 1 4.0 20:44:27 31° NW 20:44:27 31° NW 20:47:05 10° NNW
